This demonstration page uses our WeatherBlox Daily Observations layout. Learn more.

Left ArrowRight Arrow

36.19886, -115.1175

Hourly Observations for February 28, 2017

Temp ( °F °C ) Dew Point ( °F °C ) Humidity (%) Winds ( mph kmh ) Pressure ( in mb ) Visibility ( mi km ) Precip ( " mm )
12:53 am 00:53 Cloudy 48 8.9 30 -1.1 50 50 N 7 11 29.81 1010 10 16 0.00 0.00
1:53 am 01:53 Cloudy 48 8.9 32 0 54 54 NNE 8 13 29.82 1010 10 16 0.00 0.00
2:53 am 02:53 Mostly Cloudy 47 8.3 33 0.6 59 59 N 8 13 29.82 1010 10 16 0.00 0.00
3:53 am 03:53 Mostly Cloudy 47 8.3 31 -0.6 54 54 N 10 17 29.84 1010 10 16 0.00 0.00
4:53 am 04:53 Mostly Clear 46 7.8 32 0 58 58 NNW 10 17 29.87 1012 10 16 0.00 0.00
5:53 am 05:53 Mostly Clear 46 7.8 31 -0.6 56 56 NW 13 20 29.90 1013 10 16 0.00 0.00
6:53 am 06:53 Cloudy 48 8.9 29 -1.7 48 48 NNW 15 24 29.93 1014 10 16 0.00 0.00
7:53 am 07:53 Sunny 48 8.9 30 -1.1 50 50 N 14 22 29.98 1015 10 16 0.00 0.00
8:53 am 08:53 Sunny 52 11.1 25 -3.9 35 35 NW 14 22 30.02 1017 10 16 0.00 0.00
9:53 am 09:53 Sunny 54 12.2 22 -5.6 29 29 NNW 21 33 30.04 1017 10 16 0.00 0.00
10:53 am 10:53 Sunny 56 13.3 15 -9.4 20 20 NNW 18 30 30.06 1018 10 16 0.00 0.00
11:53 am 11:53 Sunny 58 14.4 13 -10.6 17 17 NNW 18 30 30.06 1018 10 16 0.00 0.00
12:53 pm 12:53 Sunny 59 15 11 -11.7 15 15 N 20 31 30.05 1018 10 16 0.00 0.00
1:53 pm 13:53 Sunny 59 15 12 -11.1 15 15 N 17 28 30.05 1018 10 16 0.00 0.00
2:53 pm 14:53 Sunny 60 15.6 6 -14.4 11 11 N 21 33 30.06 1018 10 16 0.00 0.00
3:53 pm 15:53 Sunny 60 15.6 5 -15 11 11 NNW 16 26 30.08 1019 10 16 0.00 0.00
4:53 pm 16:53 Sunny 59 15 7 -13.9 12 12 NNW 9 15 30.10 1019 10 16 0.00 0.00
5:53 pm 17:53 Clear 57 13.9 8 -13.3 14 14 NW 7 11 30.13 1020 10 16 0.00 0.00
6:53 pm 18:53 Clear 54 12.2 9 -12.8 16 16 N 3 6 30.17 1022 10 16 0.00 0.00
7:53 pm 19:53 Clear 53 11.7 19 -7.2 26 26 NE 7 11 30.21 1023 10 16 0.00 0.00
8:53 pm 20:53 Clear 50 10 16 -8.9 26 26 Calm 30.24 1024 10 16 0.00 0.00
9:53 pm 21:53 Clear 47 8.3 17 -8.3 30 30 NNW 5 7 30.27 1025 10 16 0.00 0.00
10:53 pm 22:53 Clear 48 8.9 13 -10.6 24 24 N 9 15 30.29 1026 10 16 0.00 0.00
11:53 pm 23:53 Clear 49 9.4 12 -11.1 22 22 N 6 9 30.31 1026 10 16 0.00 0.00

Powered by AerisWeather